Back to catalog

STARLINK-3089

AliveCommunicationsVLEO
NORAD 49166·PAYLOAD·🇺🇸 United States

Launched Sep 14, 2021 from Vandenberg Space Force Base

Loading…

Next Passes (next 24 hours)

TLE

FreshSource: CelesTrak SupGP

Epoch: Sep 14, 2026, 21:15 UTC

1 49166C 21082AN  26257.88590278 -.00045450  00000+0 -38888-2 0  2571
2 49166  70.0017 158.8136 0002961 268.6137 144.1577 14.97550020    19

Track STARLINK-3089 in real time with AllMySat

Download on the App Store